Home   Weather   Reutlingen   Past weeks
Flag for Germany

Past Weather in Reutlingen, Baden-Württemberg, Germany — Yesterday and Last 2 Weeks

Now
55 °F

Sunny.


Feels Like: 55 °F
Forecast: 71 / 52 °F
Wind: 2 mph from North

Location: Stuttgart-Echterdingen

Current Time: Oct 14, 2019 at 9:56:17 am

Latest Report: Oct 14, 2019 at 9:20 am


Visibility: 10 mi

Pressure: 30.04 "Hg

Humidity: 82%

Dew Point: 50 °F

Location of ReutlingenLocation

Past Weather in Reutlingen — Graph

°F

Reutlingen Temperature Yesterday

Maximum temperature yesterday: 79 °F (at 3:20 pm)
Minimum temperature yesterday: 54 °F (at 5:50 am)
Average temperature yesterday: 65 °F

High & Low Weather Summary for the Past Weeks

 TemperatureHumidityPressure
High79 °F (Oct 13, 3:20 pm)100% (Oct 1, 2:50 am)30.18 "Hg (Oct 1, 2:50 am)
Low37 °F (Oct 4, 1:20 am)27% (Sep 29, 2:50 pm)29.65 "Hg (Sep 29, 11:20 pm)
Average54 °F80%29.95 "Hg
* Reported Sep 29 8:20 am — Oct 14 8:50 am, Reutlingen. Weather by CustomWeather, © 2019

Note: Actual official high and low records may vary slightly from our data, if they occured in-between our weather recording intervals... More about our weather records

Advertising

Reutlingen Weather History for the Previous 24 Hours

Scroll right to see more
 ConditionsComfort  
Time TempWeatherWind HumidityBarometerVisibility
8:50 am
Mon, Oct 14
52 °FSunny.2 mph94%30.01 "Hg10 mi
8:20 am50 °FSunny.3 mph94%30.01 "Hg10 mi
7:50 am48 °FSunny.3 mph100%30.01 "Hg10 mi
7:20 am48 °FClear.3 mph100%30.01 "Hg10 mi
6:50 am50 °FClear.2 mph94%30.01 "Hg10 mi
6:20 am57 °FPassing clouds.3 mph82%30.01 "HgN/A
5:50 am55 °FClear.2 mph88%30.01 "Hg10 mi
5:20 am52 °FClear.5 mph94%30.01 "Hg10 mi
4:50 am52 °FClear.2 mph94%30.01 "Hg10 mi
4:20 am52 °FClear.1 mph100%30.01 "Hg10 mi
3:50 am52 °FClear.1 mph100%30.01 "Hg10 mi
3:20 am52 °FClear.1 mph100%30.01 "Hg10 mi
2:50 am52 °FClear.2 mph100%30.01 "Hg10 mi
2:20 am54 °FClear.1 mph100%30.01 "Hg10 mi
1:50 am54 °FClear.2 mph94%30.01 "Hg10 mi
1:20 am55 °FClear.2 mph94%30.01 "Hg10 mi
12:50 am55 °FClear.2 mph88%30.04 "Hg10 mi
12:20 am55 °FClear.1 mph88%30.04 "Hg10 mi
11:50 pm
Sun, Oct 13
57 °FClear.1 mph82%30.01 "Hg10 mi
11:20 pm59 °FClear.1 mph82%30.01 "Hg10 mi
10:50 pm63 °FClear.2 mph73%30.01 "Hg10 mi
10:20 pm63 °FClear.2 mph73%30.01 "Hg10 mi
9:50 pm63 °FPassing clouds.3 mph73%30.01 "HgN/A
9:20 pm61 °FClear.1 mph77%30.01 "Hg10 mi
8:50 pm63 °FClear.2 mph73%29.98 "Hg10 mi
8:20 pm66 °FPassing clouds.5 mph68%29.98 "HgN/A
7:50 pm68 °FClear.5 mph64%29.98 "Hg10 mi
7:20 pm68 °FPassing clouds.3 mph64%29.98 "HgN/A
6:50 pm70 °FPassing clouds.5 mph60%29.98 "HgN/A
6:20 pm75 °FSunny.2 mph47%29.95 "Hg10 mi
5:50 pm75 °FPassing clouds.5 mph50%29.95 "HgN/A
5:20 pm79 °FPassing clouds.5 mph42%29.95 "HgN/A
4:50 pm79 °FSunny.7 mph39%29.95 "Hg10 mi
4:20 pm79 °FPassing clouds.8 mph39%29.95 "HgN/A
3:50 pm79 °FPassing clouds.5 mph51%29.95 "HgN/A
3:20 pm79 °FPassing clouds.6 mph51%29.95 "HgN/A
2:50 pm77 °FPassing clouds.6 mph54%29.98 "HgN/A
2:20 pm73 °FPassing clouds.8 mph61%29.98 "HgN/A
1:50 pm77 °FPassing clouds.6 mph54%29.98 "HgN/A
1:20 pm75 °FPassing clouds.6 mph57%29.98 "HgN/A
12:50 pm73 °FPassing clouds.5 mph57%30.01 "HgN/A
12:20 pm73 °FPassing clouds.5 mph57%30.01 "HgN/A
11:50 am72 °FPassing clouds.3 mph61%30.01 "HgN/A
11:20 am70 °FPassing clouds.5 mph64%30.01 "HgN/A
10:50 am66 °FSunny.2 mph68%30.01 "Hg10 mi
10:20 am64 °FSunny.3 mph73%30.01 "Hg10 mi
9:50 am63 °FSunny.2 mph77%30.01 "Hg10 mi
9:20 am59 °FSunny.2 mph88%30.01 "Hg10 mi
Weather by CustomWeather, © 2019

See weather overview